This is the latest recevied weather packets stored in our database for station/object SP9TKN-1. If no packets are shown the sender has not sent any weather packets the latest 10 day(s).
| Time | Temp. | Humidity | Pressure | Rain* | Wind** | Luminosity | Snow |
|---|---|---|---|---|---|---|---|
| 1777203949 | 13.33° C | 24% | 1022.4 hPa | - | - | - | - |
| 1777203049 | 13.89° C | 24% | 1022.3 hPa | - | - | - | - |
| 1777202151 | 13.89° C | 24% | 1022.2 hPa | - | - | - | - |
| 1777200348 | 13.33° C | 28% | 1022 hPa | - | - | - | - |
| 1777199448 | 12.78° C | 30% | 1021.9 hPa | - | - | - | - |
| 1777198548 | 13.89° C | 29% | 1021.8 hPa | - | - | - | - |
| 1777197651 | 13.33° C | 32% | 1021.9 hPa | - | - | - | - |
| 1777196747 | 12.22° C | 31% | 1021.6 hPa | - | - | - | - |
| 1777195849 | 12.22° C | 32% | 1021.3 hPa | - | - | - | - |
| 1777194947 | 11.67° C | 36% | 1021.5 hPa | - | - | - | - |
| 1777194047 | 12.22° C | 38% | 1021.4 hPa | - | - | - | - |
| 1777193147 | 11.11° C | 34% | 1021.3 hPa | - | - | - | - |
| 1777192247 | 11.11° C | 37% | 1021.2 hPa | - | - | - | - |
| 1777191347 | 11.11° C | 36% | 1021.2 hPa | - | - | - | - |
| 1777190448 | 10.56° C | 38% | 1021.1 hPa | - | - | - | - |
| 1777189548 | 11.11° C | 37% | 1021 hPa | - | - | - | - |
| 1777188648 | 10° C | 39% | 1020.8 hPa | - | - | - | - |
| 1777187750 | 10.56° C | 38% | 1020.6 hPa | - | - | - | - |
| 1777186847 | 10.56° C | 38% | 1020.4 hPa | - | - | - | - |
| 1777185947 | 10.56° C | 39% | 1020 hPa | - | - | - | - |
| 1777185047 | 10.56° C | 39% | 1019.7 hPa | - | - | - | - |
| 1777184147 | 9.44° C | 41% | 1019.6 hPa | - | - | - | - |
| 1777183247 | 8.89° C | 43% | 1019.4 hPa | - | - | - | - |
| 1777182347 | 9.44° C | 42% | 1019.3 hPa | - | - | - | - |
| 1777181447 | 8.89° C | 42% | 1018.9 hPa | - | - | - | - |
* Rain since midnight (hover to see other rain measurements)
** Current wind speed in m/s (hover to see current wind gust speed)